#timestamp,LO_Frequency,Hit,StdDev 
1631188815.9,286046999.8,N
1631188835.7,286047000.3,N
1631188855.5,286047000.9,N
1631188875.4,286047000.0,N
1631188895.2,286047002.3,N
1631188915.0,286047000.0,N
1631188915.9,286047000.0,N
1631188935.8,286047002.5,N
1631188955.6,286047002.1,N
1631188975.4,286047001.5,N
1631188995.3,286047002.5,N
1631189015.1,286047002.7,N
1631189035.8,286047002.1,N
1631189055.7,286047002.8,N
1631189075.5,286046999.9,N
1631189095.3,286047002.4,N
1631189115.2,286047002.1,N
1631189135.0,286047001.3,N
1631189135.9,286047001.3,N
1631189155.7,286047002.8,N
1631189175.6,286047002.7,N
1631189195.4,286047002.7,N
1631189215.2,286047002.4,N
1631189235.1,286047001.8,N
1631189236.0,286047001.8,N
1631189255.8,286047002.0,N
1631189275.6,286047001.8,N
1631189295.5,286047001.9,N
1631189315.3,286047002.8,N
1631189335.1,286047002.3,N
1631189355.9,286047001.8,N
1631189375.7,286047001.4,N
1631189395.5,286047001.6,N
1631189415.4,286047004.4,Y
1631189435.2,286047001.1,P
1631189455.0,286047000.6,N
1631189455.9,286047000.6,N
1631189475.8,286047001.0,N
1631189495.6,286047000.7,N
1631189515.4,286046999.9,N
1631189535.3,286047001.1,N
1631189555.1,286046998.4,Y
1631189575.8,286046999.4,P
1631189595.7,286046998.5,N
1631189615.5,286046996.6,P
1631189635.3,286046999.1,N
1631189655.2,286047000.9,N
1631189675.0,286046998.5,N
1631189675.9,286046998.5,N
1631189695.7,286046998.5,N
1631189715.6,286046998.2,N
1631189735.4,286046999.3,N
1631189755.2,286047000.4,N
1631189775.1,286047000.6,N
1631189776.0,286047000.6,N
1631189795.8,286047000.4,N
1631189815.6,286047000.4,N
1631189835.5,286047001.1,N
1631189855.3,286047001.0,N
1631189875.1,286047000.9,N
1631189895.9,286047001.0,N
1631189915.7,286047000.6,N
1631189935.5,286047000.6,N
1631189955.4,286047000.0,N
1631189975.2,286047000.5,N
1631189995.0,286047000.9,N
1631189995.9,286047000.9,N
1631190015.8,286046998.5,N
1631190035.6,286047001.0,N
1631190055.4,286047000.0,N
1631190075.3,286047000.6,N
1631190095.1,286047000.5,N
1631190115.8,286047000.3,N
1631190135.7,286047001.0,N
1631190155.5,286047001.1,N
1631190175.3,286046998.2,N
1631190195.2,286046998.5,N
1631190215.0,286047000.6,N
1631190215.9,286047000.6,N
1631190235.7,286046998.7,N
1631190255.6,286047001.1,N
1631190275.4,286047002.7,Y
1631190295.2,286047000.1,P
1631190315.1,286047002.2,P
1631190316.0,286047002.2,N
1631190335.8,286047002.0,N
1631190355.6,286047002.3,N
1631190375.5,286047001.9,N
1631190395.3,286047002.0,N
1631190415.1,286047001.9,N
1631190435.9,286047002.3,N
1631190455.7,286046998.5,N
1631190475.5,286046998.9,N
1631190495.4,286046999.3,N
1631190515.2,286047000.5,N
1631190535.0,286047000.9,N
1631190535.9,286047000.9,N
1631190555.8,286047000.5,N
1631190575.6,286047000.2,N
1631190595.4,286047001.1,N
1631190615.3,286047002.6,N
1631190635.1,286047001.6,N
1631190655.8,286047001.5,N
1631190675.7,286047001.9,N
1631190695.5,286047002.2,N
1631190715.3,286047002.8,N
1631190735.2,286047002.7,N
1631190755.9,286046999.9,N
1631190775.7,286046999.9,N
1631190795.6,286046999.8,N
1631190815.4,286047002.7,N
1631190835.2,286047000.1,N
1631190855.1,286047001.7,N
1631190856.0,286047001.7,N
1631190875.8,286047002.6,N
1631190895.6,286047002.7,N
1631190915.5,286047002.1,N
1631190935.3,286047005.9,Y
1631190955.1,286047005.9,P
1631190975.9,286047005.1,N
1631190995.7,286047003.5,N
1631191015.5,286047003.3,N
1631191035.4,286047003.5,N
1631191055.2,286047003.4,N
1631191075.0,286047005.2,Y
1631191075.9,286047005.2,P
1631191095.8,286047000.7,N
1631191115.6,286047000.6,N
1631191135.4,286046998.2,N
1631191155.3,286046998.1,N
1631191175.1,286047001.1,N
1631191195.8,286047000.0,N
1631191215.7,286047002.6,N
1631191235.5,286047001.3,N
1631191255.3,286047004.3,N
1631191275.2,286047003.2,N
1631191295.9,286047003.8,N
1631191315.7,286047004.2,N
1631191335.6,286047002.2,N
1631191355.4,286047002.5,N
1631191375.2,286047002.1,N
1631191395.1,286047002.7,N
1631191396.0,286047002.7,N
1631191415.8,286047002.4,N
1631191435.6,286047002.4,N
1631191455.5,286047002.6,N
1631191475.3,286047002.7,N
1631191495.1,286047002.2,N
1631191515.9,286046999.9,N
1631191535.7,286047001.5,N
1631191555.5,286047001.3,N
1631191575.4,286047002.2,N
1631191595.2,286047001.6,N
1631191615.0,286047001.9,N
1631191615.9,286047001.9,N
1631191635.8,286047003.9,N
1631191655.6,286047001.7,N
1631191675.4,286047001.8,N
1631191695.3,286047003.9,N
1631191715.1,286047001.4,N
1631191716.0,286047001.4,N
1631191735.8,286047001.8,N
1631191755.7,286047001.7,N
1631191775.5,286047004.2,Y
1631191795.3,286047000.1,P
1631191815.2,286047000.5,N
1631191835.9,286047000.6,N
1631191855.7,286046998.7,N
1631191875.6,286046998.6,N
1631191895.4,286046999.6,N
1631191915.2,286046999.6,N
1631191935.1,286046998.1,N
1631191936.0,286046998.1,N
1631191955.8,286046998.2,N
1631191975.6,286046999.3,N
1631191995.5,286047001.2,N
1631192015.3,286047000.1,N
1631192035.1,286047001.7,N
1631192055.9,286047002.0,N
1631192075.7,286047003.9,N
1631192095.5,286047005.9,Y
1631192115.4,286047001.9,P
1631192135.2,286046998.2,N
1631192155.0,286047000.9,N
1631192155.9,286047000.9,N
1631192175.8,286046998.7,N
1631192195.6,286046998.9,N
1631192215.4,286046996.9,N
1631192235.3,286046995.0,Y
1631192255.1,286046997.6,P
1631192275.8,286046995.1,P
1631192295.7,286046996.1,N
1631192315.5,286046996.2,N
1631192335.3,286046996.1,N
1631192355.2,286046993.6,Y
1631192375.0,286046999.0,P
1631192375.9,286046999.0,N
1631192395.7,286046999.1,N
